sat.trackr.live / text

‹ back to catalog

STARLINK-2538

NORAD 48300 · 2021-036AA

PAYLOAD ACTIVE UNKNOWN

§ Identity

Operator
Country
US
Launch date
2021-04-29
Launch site
AFETR
Launch vehicle
Mass (kg)
RCS (m²)

Purposes: comms

External: N2YO · Heavens-Above · Gunter

§ Orbital elements

Epoch: 2026-05-25T03:38:02.200704Z

Period
94.01 min
Inclination
53.1584°
Eccentricity
0.0001211
Mean motion
15.31701455 rev/d
Perigee alt
469.9 km
Apogee alt
471.6 km
Semi-major
6,848.9 km
B*
6.9875e-5
RAAN
92.5391°
Arg perigee
90.6768°
Mean anomaly
269.4372°
Rev number
27,994

§ Raw data

STARLINK-25381 48300U 21036AA  26145.15141436  .00001804  00000+0  69875-4 0  99912 48300  53.1584  92.5391 0001211  90.6768 269.4372 15.31701455279949

JSON: /api/v1/satellites/48300 · /tle

For live sub-satellite position, see the globe view (requires WebGL).

§ Visibility from observer

Set your observer location to see the next 7 days of passes ≥ 10°. The values pass through the URL so the page stays shareable.

No JS? Fill the form by hand. The geolocation button needs JavaScript.